EW7614 Weather Reports


Display with metric or nautical units.
time (UTC)temp
F
wind
direction
speed
MPH
gust
MPH
rain 1hr
in
rain 24hr
in
rain mn
in
humidity
%
barometer
mb
20260902223120 59 248 0.0 0.0 0.00 0.00 0.00 85 1019.1
20260902221516 59 248 0.0 0.0 0.00 0.00 0.00 85 1019.0
20260902220113 60 248 0.0 0.0 0.00 0.00 0.00 84 1018.9
20260902214526 60 248 0.0 0.0 0.00 0.00 0.00 85 1018.9
20260902213121 61 257 0.0 1.0 0.00 0.00 0.00 84 1018.8
20260902211528 61 254 0.0 0.0 0.00 0.00 0.00 82 1018.7
20260902210113 62 259 0.0 1.0 0.00 0.00 0.00 81 1018.5
20260902204537 63 290 0.0 2.0 0.00 0.00 0.00 77 1018.5
20260902203118 66 248 4.0 9.0 0.00 0.00 0.00 67 1018.3
20260902201534 65 221 4.0 7.0 0.00 0.00 0.00 70 1018.4
20260902200124 65 242 0.0 9.0 0.00 0.00 0.00 72 1018.5
20260902194527 65 94 0.0 2.0 0.00 0.00 0.00 72 1018.4
20260902193118 67 220 3.0 11.0 0.00 0.00 0.00 67 1018.2
20260902191511 67 186 0.0 6.0 0.00 0.00 0.00 67 1018.2
20260902190114 66 173 0.0 1.0 0.00 0.00 0.00 69 1018.0
20260902184532 67 243 0.0 4.0 0.00 0.00 0.00 69 1017.8
20260902183123 67 196 0.0 5.0 0.00 0.00 0.00 68 1017.5
20260902181542 68 199 0.0 8.0 0.00 0.00 0.00 64 1017.3
20260902180128 69 40 0.0 1.0 0.00 0.00 0.00 63 1017.2
20260902174556 69 234 0.0 2.0 0.00 0.00 0.00 63 1016.9
20260902173002 70 304 1.0 4.0 0.00 0.00 0.00 60 1016.7
20260902171608 71 257 1.0 6.0 0.00 0.00 0.00 59 1016.4
20260902170042 72 206 0.0 1.0 0.00 0.00 0.00 61 1016.1
20260902164615 71 291 0.0 3.0 0.00 0.00 0.00 60 1016.0
20260902163027 72 225 0.0 2.0 0.00 0.00 0.00 61 1015.9
20260902161620 73 261 1.0 4.0 0.00 0.00 0.00 59 1015.8
20260902160106 74 206 0.0 3.0 0.00 0.00 0.00 61 1015.6
20260902154531 75 233 0.0 3.0 0.00 0.00 0.00 59 1015.5
20260902153124 76 173 0.0 2.0 0.00 0.00 0.00 57 1015.6
20260902151558 74 217 0.0 1.0 0.00 0.00 0.00 59 1015.7
20260902150137 76 252 0.0 2.0 0.00 0.00 0.00 53 1015.7
20260902144530 77 282 0.0 4.0 0.00 0.00 0.00 52 1015.8
20260902143125 76 306 3.0 7.0 0.00 0.00 0.00 53 1016.0
20260902141609 76 300 4.0 8.0 0.00 0.00 0.00 52 1015.8
20260902140158 76 325 3.0 13.0 0.00 0.00 0.00 52 1016.0
20260902134555 75 296 4.0 11.0 0.00 0.00 0.00 52 1015.9
20260902133133 75 290 1.0 6.0 0.00 0.00 0.00 54 1015.9
20260902131533 75 340 6.0 12.0 0.00 0.00 0.00 51 1016.0
20260902130114 76 285 3.0 9.0 0.00 0.00 0.00 52 1015.9
20260902124526 75 319 2.0 11.0 0.00 0.00 0.00 55 1016.1
20260902123120 76 331 2.0 10.0 0.00 0.00 0.00 61 1016.1
20260902121525 75 296 4.0 10.0 0.00 0.00 0.00 56 1016.4
20260902120117 76 216 0.0 2.0 0.00 0.00 0.00 58 1016.3
20260902114609 77 202 0.0 1.0 0.00 0.00 0.00 58 1016.5
20260902113118 76 207 0.0 3.0 0.00 0.00 0.00 52 1016.8
20260902111609 76 29 0.0 2.0 0.00 0.00 0.00 55 1016.9
20260902110029 75 47 0.0 4.0 0.00 0.00 0.00 58 1017.1
20260902104614 74 30 0.0 4.0 0.00 0.00 0.00 59 1017.3
20260902103023 74 42 0.0 5.0 0.00 0.00 0.00 61 1017.6
20260902100025 72 24 1.0 6.0 0.00 0.00 0.00 60 1018.1
20260902094619 72 24 0.0 2.0 0.00 0.00 0.00 65 1018.2
20260902093159 70 277 0.0 1.0 0.00 0.00 0.00 67 1018.3
20260902090059 67 254 0.0 1.0 0.00 0.00 0.00 74 1018.7
20260902084630 66 254 0.0 1.0 0.00 0.00 0.00 75 1018.8
20260902083048 64 261 0.0 1.0 0.00 0.00 0.00 75 1018.8
20260902081503 63 248 0.0 1.0 0.00 0.00 0.00 79 1019.0
20260902080046 62 250 0.0 1.0 0.00 0.00 0.00 83 1019.1
20260902074619 61 252 0.0 1.0 0.00 0.00 0.00 83 1019.2
20260902073007 59 259 0.0 0.0 0.00 0.00 0.00 91 1019.4
20260902071529 56 261 0.0 0.0 0.00 0.00 0.00 96 1019.5
20260902070114 54 260 0.0 0.0 0.00 0.00 0.00 97 1019.5
20260902064542 53 260 0.0 0.0 0.00 0.01 0.00 97 1019.6
20260902063122 52 260 0.0 0.0 0.00 0.01 0.00 97 1019.7
20260902061522 51 260 0.0 0.0 0.00 0.01 0.00 97 1019.7
20260902060120 51 260 0.0 0.0 0.00 0.01 0.00 97 1019.9
20260902054535 50 260 0.0 0.0 0.00 0.01 0.00 97 1019.9
20260902053112 49 260 0.0 0.0 0.00 0.01 0.00 97 1019.7
20260902051528 49 260 0.0 0.0 0.00 0.01 0.00 97 1019.6
20260902050120 49 260 0.0 0.0 0.00 0.01 0.00 97 1019.4
20260902044557 49 260 0.0 0.0 0.00 0.01 0.00 97 1019.3
20260902043126 49 260 0.0 0.0 0.00 0.01 0.00 97 1019.3
20260902041545 49 260 0.0 0.0 0.00 0.01 0.00 96 1019.1
20260902040116 50 260 0.0 0.0 0.00 0.01 0.00 96 1019.1
20260902034555 50 260 0.0 0.0 0.00 0.01 0.00 97 1019.2
20260902033132 49 260 0.0 0.0 0.00 0.01 0.00 96 1019.3
20260902031530 50 259 0.0 0.0 0.00 0.01 0.00 96 1019.3
20260902030119 50 259 0.0 0.0 0.00 0.01 0.00 96 1019.3
20260902024542 51 259 0.0 0.0 0.00 0.01 0.00 96 1019.4
20260902023111 51 259 0.0 0.0 0.00 0.01 0.00 95 1019.4
20260902021544 51 259 0.0 0.0 0.00 0.01 0.00 96 1019.4
20260902020111 51 259 0.0 0.0 0.00 0.01 0.00 95 1019.5
20260902014604 52 259 0.0 0.0 0.00 0.01 0.00 95 1019.4
20260902013036 51 259 0.0 0.0 0.00 0.01 0.00 95 1019.4
20260902011618 51 259 0.0 1.0 0.00 0.01 0.00 93 1019.3
20260902010013 52 256 0.0 0.0 0.00 0.01 0.00 94 1019.3
20260902004558 53 261 0.0 0.0 0.00 0.01 0.00 94 1019.3
20260902003004 53 261 0.0 0.0 0.00 0.01 0.00 94 1019.4
20260902001544 53 261 0.0 0.0 0.00 0.01 0.00 92 1019.3
20260902000115 54 257 0.0 0.0 0.00 0.01 0.00 93 1019.2
20260901234535 54 257 0.0 1.0 0.00 0.01 0.00 93 1019.3
20260901233127 54 260 0.0 0.0 0.00 0.01 0.00 93 1019.2
20260901231608 54 245 0.0 2.0 0.00 0.01 0.00 93 1019.2
20260901230036 54 265 0.0 0.0 0.00 0.01 0.00 92 1019.2
20260901224616 55 265 0.0 0.0 0.00 0.01 0.00 91 1019.1